Location: Melizzano
(41.1500°N, 14.5000°E)
Time: 04:50:02
(UTC+00:00)

USA 281 - Pass Details

Date: 11 May 2021
Orbit: 1078 x 1081 km, 106.0° (Epoch: 09 June)

Event Time Altitude Azimuth Distance (km) Brightness Sun altitude
Exits shadow 23:36:57 26° 109° (ESE) 1,977 4.5 -30.0°
Maximum altitude 23:40:04 42° 57° (ENE) 1,498 4.2 -29.9°
Drops below altitude 10° 23:46:09 10° 350° (N) 2,928 6.3 -29.7°
Sets 23:48:48 0° 343° (NNW) 3,888 7.0 -29.6°
